Flag for U.S.A. Weather past 2 weeks in Boston, Massachusetts, U.S.A.

Now
47 °F

Scattered clouds.


Feels Like: 43 °F
Forecast: 51 / 62 °F
Wind: 8 mph from East

Location: Logan International Airport

Current Time: Apr 18, 2015 at 5:53:10 PM

Latest Report: Apr 18, 2015 at 4:54 PM


Visibility: 10 mi

Pressure: 29.83 "Hg

Humidity: 80%

Dew point: 41 °F

Location of BostonLocation

Historic Weather in Boston — Graph

°F

Boston temperature yesterday

Maximum temperature yesterday: 64 °F (at 5:54 PM)
Minimum temperature yesterday: 48 °F (at 12:54 AM)
Average temperature yesterday: 56 °F

Past Weeks' High & Low Weather Summary

 TemperatureHumidityPressure
High69 °F (Apr 13, 12:54 PM)100% (Apr 3, 10:54 PM)30.50 "Hg (Apr 3, 10:54 PM)
Low32 °F (Apr 5, 4:54 AM)16% (Apr 15, 12:54 PM)29.41 "Hg (Apr 4, 6:04 AM)
Average48 °F63%30.13 "Hg
* Reported Apr 3 3:54 PM — Apr 18 3:54 PM, Boston, Weather by CustomWeather, © 2015

Note: Actual official high and low records may vary slightly from our data, if they occured in-between our weather recording intervals... More about our weather records

Advertising

Boston weather history for previous 24 hours

 ConditionsComfort  
Time TempWeatherWind HumidityBarometerVisibility
3:54 PM
Sat, Apr 18
47 °FScattered clouds.10 mph80%29.85 "Hg10 mi
2:54 PM47 °FPartly sunny.10 mph77%29.88 "Hg10 mi
1:54 PM50 °FPassing clouds.15 mph68%29.90 "Hg10 mi
12:54 PM51 °FSunny.13 mph66%29.92 "Hg10 mi
11:54 AM53 °FSunny.16 mph59%29.95 "Hg10 mi
10:54 AM57 °FSunny.16 mph49%29.96 "Hg10 mi
9:54 AM58 °FSunny.8 mph58%29.96 "Hg10 mi
8:54 AM59 °FSunny.6 mph58%29.94 "Hg10 mi
7:54 AM56 °FSunny.5 mph65%29.94 "Hg10 mi
6:54 AM53 °FClear.8 mph69%29.94 "Hg10 mi
5:54 AM52 °FClear.8 mph72%29.92 "Hg10 mi
4:54 AM51 °FClear.5 mph77%29.91 "Hg10 mi
3:54 AM53 °FClear.12 mph72%29.90 "Hg10 mi
2:54 AM54 °FClear.10 mph72%29.91 "Hg10 mi
1:54 AM55 °FClear.14 mph72%29.91 "Hg10 mi
12:54 AM56 °FClear.10 mph72%29.91 "Hg10 mi
11:54 PM
Fri, Apr 17
58 °FClear.10 mph67%29.91 "Hg10 mi
9:54 PM61 °FClear.9 mph65%29.90 "Hg10 mi
8:54 PM61 °FClear.9 mph65%29.89 "Hg10 mi
7:54 PM62 °FScattered clouds.12 mph62%29.88 "Hg10 mi
6:54 PM64 °FScattered clouds.14 mph58%29.86 "Hg10 mi
5:54 PM64 °FPartly sunny.9 mph63%29.86 "Hg10 mi
Weather by CustomWeather, © 2015

See weather overviewHow to use our weather pages